[ hide orbit diagram ]
For accurate long-term ephemerides, please instead use our Horizons system.This orbit viewer was implemented using two-body methods, and hence should not be used for determining accurate long-term trajectories (over several years or decades) or planetary encounter circumstances.
Orbital Elements at Epoch 2459200.5 (2020-Dec-17.0) TDB
Reference: JPL 19 (heliocentric ecliptic J2000)
Element | Value | Uncertainty (1-sigma) | Units |
e | .0877195888132509 | 5.2763e-08 | |
a | 2.541805229114015 | 1.6135e-08 | au |
q | 2.318839119572762 | 1.3281e-07 | au |
i | 2.933444356613152 | 4.2389e-06 | deg |
node | 115.4486714638193 | 0.00011075 | deg |
peri | 100.8800482562906 | 0.00011333 | deg |
M | 330.7563988051774 | 2.4162e-05 | deg |
tp | 2459320.737567616251 (2021-Apr-16.23756762) | 9.9384e-05 | TDB |
period | 1480.170792012919 4.05 | 1.4094e-05 3.859e-08 | d yr |
n | .2432151762097856 | 2.3159e-09 | deg/d |
Q | 2.764771338655267 | 1.755e-08 | au |
|
| | Orbit Determination Parameters
Additional Information
|
[ show covariance matrix ]
Physical Parameter Table
Parameter |
Symbol |
Value |
Units |
Sigma |
Reference |
Notes |
absolute magnitude |
H |
15.8 |
|
n/a |
MPO526866 |
|
|
103460 Dieterherrmann | Discovered 2000 Jan. 11 by G. Lehmann and J. Kandler at Drebach Observatory. |
German astronomer and physicist Dieter B. Herrmann (b. 1939) was for many years the director of the Archenhold Observatory in Berlin-Treptow and the Zeiss-Planetarium in Berlin-Prenzlau. He is the author of more than 40 astronomical books. |
NOTE: some special characters may not display properly (any characters within {} are an attempt to place the proper accent above a character) |
Reference: 20100923/MPCPages.arc | Last Updated: 2010-12-06 |
|
[ show close-approach data ]
|